Weather History for Beckley, WV

Change the Weather History Date:

Saturday, October 9, 2010

  Actual Average Record
Temperature  
Mean Temperature 61 °F 55 °F  
Max Temperature 76 °F 65 °F 86 °F (1939)
Min Temperature 46 °F 45 °F 23 °F (1907)
Degree Days  
Heating Degree Days 4 10  
Month to date heating degree days 112 82  
Since 1 July heating degree days 185 216  
Cooling Degree Days 0 0  
Month to date cooling degree days 0 2  
Year to date cooling degree days 866 552  
Growing Degree Days 10 (Base 50)    
Moisture  
Dew Point 41 °F    
Average Humidity 51    
Maximum Humidity 76    
Minimum Humidity 25    
Precipitation  
Precipitation 0.00 in 0.09 in 1.00 in (1922)
Month to date precipitation 0.39 0.74  
Year to date precipitation 35.55 33.41  
Snow  
Snow 0.00 in - - ()
Month to date snowfall 0.0  
Since 1 September snowfall 0.0  
Snow Depth 0.00 in    
Sea Level Pressure  
Sea Level Pressure 30.08 in    
Wind  
Wind Speed 3 mph (WSW)    
Max Wind Speed 12 mph    
Max Gust Speed 15 mph    
Visibility 10 miles    
Events      
T = Trace of Precipitation, MM = Missing Value Source: NWS Daily Summary

Daily Weather History Graph

Daily Weather History Graph

Search for Another Location

Airport:

Trip Planner

Search our weather history database for the weather conditions in past years. The results will help you decide how hot, cold, wet, or windy it might be!

Date:

Astronomy

Oct. 09, 2010 Rise Set
Actual Time 7:27 AM EDT 6:55 PM EDT
Civil Twilight 7:00 AM EDT 7:21 PM EDT
Nautical Twilight 6:30 AM EDT 7:52 PM EDT
Astronomical Twilight 6:00 AM EDT 8:22 PM EDT
Moon 9:41 AM EDT (10/9) 7:54 PM EDT (10/9)
Length of Visible Light 12h 20m
Length of Day
11h 28m
Waxing Crescent, 5% of the Moon is Illuminated
Oct 9
Waxing Crescent
Oct 14
First Quarter
Oct 22
Full
Oct 30
Last Quarter
Nov 6
New

Hourly Weather History & Observations

Time (EDT) Temp. Dew Point Humidity Pressure Visibility Wind Dir Wind Speed Gust Speed Precip Events Conditions
12:51 AM 51.1 °F 41.0 °F 68% 30.08 in 10.0 mi SSW 3.5 mph - N/A   Clear
1:51 AM 51.1 °F 41.0 °F 68% 30.08 in 10.0 mi Calm Calm - N/A   Clear
2:51 AM 50.0 °F 41.0 °F 71% 30.07 in 10.0 mi South 3.5 mph - N/A   Clear
3:51 AM 50.0 °F 41.0 °F 71% 30.06 in 10.0 mi Calm Calm - N/A   Clear
4:51 AM 48.0 °F 39.9 °F 74% 30.07 in 10.0 mi Calm Calm - N/A   Clear
5:51 AM 46.9 °F 39.9 °F 77% 30.08 in 10.0 mi Calm Calm - N/A   Clear
6:51 AM 46.9 °F 39.0 °F 74% 30.10 in 10.0 mi South 3.5 mph - N/A   Clear
7:51 AM 48.0 °F 39.0 °F 71% 30.13 in 10.0 mi South 3.5 mph - N/A   Clear
8:51 AM 55.9 °F 45.0 °F 67% 30.12 in 10.0 mi Calm Calm - N/A   Clear
9:51 AM 60.1 °F 43.0 °F 53% 30.13 in 10.0 mi WSW 3.5 mph - N/A   Clear
10:51 AM 64.4 °F 44.6 °F 49% 30.16 in 10.0 mi WSW 3.5 mph - N/A   Clear
11:51 AM 69.1 °F 39.9 °F 35% 30.10 in 10.0 mi NW 5.8 mph - N/A   Clear
12:51 PM 73.0 °F 39.0 °F 29% 30.08 in 10.0 mi NNW 4.6 mph - N/A   Clear
1:51 PM 73.9 °F 37.0 °F 26% 30.05 in 10.0 mi NW 9.2 mph - N/A   Clear
2:51 PM 75.0 °F 37.0 °F 25% 30.03 in 10.0 mi NW 9.2 mph - N/A   Clear
3:51 PM 75.9 °F 37.9 °F 25% 30.02 in 10.0 mi NW 9.2 mph - N/A   Clear
4:51 PM 75.0 °F 39.0 °F 27% 30.02 in 10.0 mi NNW 6.9 mph - N/A   Clear
5:51 PM 73.0 °F 41.0 °F 31% 30.04 in 10.0 mi North 5.8 mph - N/A   Clear
6:51 PM 68.0 °F 42.1 °F 39% 30.05 in 10.0 mi Calm Calm - N/A   Clear
7:51 PM 60.1 °F 44.1 °F 55% 30.08 in 10.0 mi Calm Calm - N/A   Clear
8:51 PM 59.0 °F 43.0 °F 55% 30.07 in 10.0 mi Calm Calm - N/A   Clear
9:51 PM 57.9 °F 43.0 °F 58% 30.07 in 10.0 mi Calm Calm - N/A   Clear
10:51 PM 55.9 °F 43.0 °F 62% 30.08 in 10.0 mi SSE 3.5 mph - N/A   Clear
11:51 PM 55.9 °F 43.0 °F 62% 30.06 in 10.0 mi South 3.5 mph - N/A   Clear